Location: Franzen
(48.6167°N, 15.3833°E)
Time: 10:44:20
(UTC+00:00)

Cosmos 2227 Rocket - Pass Details

Date: 22 April 2021
Orbit: 840 x 843 km, 71.0° (Epoch: 16 May)

Event Time Altitude Azimuth Distance (km) Brightness Sun altitude
Rises 18:51:49 0° 177° (S) 3,386 5.0 -8.5°
Reaches altitude 10° 18:54:27 10° 168° (SSE) 2,456 4.2 -8.9°
Maximum altitude 18:59:26 33° 106° (ESE) 1,374 2.8 -9.6°
Drops below altitude 10° 19:04:27 10° 43° (NE) 2,470 4.5 -10.3°
Sets 19:07:05 0° 35° (NE) 3,409 5.3 -10.7°
